Location: Asheville, NC
(35.6000°N, 82.5500°W)
Time: 01:48:48
(UTC-05:00)

Vanguard 2 Rocket - Pass Details

Date: 12 February 2018
Orbit: 555 x 3327 km, 32.9° (Epoch: 21 February)

Event Time Altitude Azimuth Distance (km) Brightness Sun altitude
Rises 03:19:39 0° 261° (W) 6,702 - -48.9°
Reaches altitude 10° 03:23:44 10° 261° (W) 5,910 - -48.1°
Exits shadow 03:41:47 77° 230° (SW) 3,373 9.3 -44.6°
Maximum altitude 03:43:43 82° 177° (S) 3,316 9.4 -44.3°
Drops below altitude 10° 04:01:45 10° 93° (E) 5,416 11.4 -40.7°
Sets 04:05:18 0° 93° (E) 6,146 12.0 -40.0°
